Date,Time,Wetness (Wet Dry or Ice),Wind Speed (m/s),Temperature (C),Humidity (%),Pressure (mb),Radiation (W/m^2)
2020-07-02,06:10:00,DRY,3.17,19.63,7.0,779.00,2.9
2020-07-02,06:15:00,DRY,1.60,19.55,7.0,779.00,4.0
2020-07-02,06:20:00,DRY,3.13,19.57,7.0,779.00,7.2
2020-07-02,06:25:00,DRY,3.85,19.60,7.0,779.00,11.8
2020-07-02,06:30:00,DRY,2.37,19.53,8.0,779.00,18.3
2020-07-02,06:35:00,DRY,3.45,19.50,8.0,779.00,25.9
2020-07-02,06:40:00,DRY,2.77,19.63,7.7,779.00,34.9
2020-07-02,06:45:00,DRY,2.15,19.85,7.5,779.00,46.0
2020-07-02,06:50:00,DRY,2.60,19.67,7.3,779.00,59.6
2020-07-02,06:55:00,DRY,2.90,19.60,7.5,779.00,72.5
2020-07-02,07:00:00,DRY,2.60,19.70,7.0,779.00,89.4
2020-07-02,07:05:00,DRY,2.80,19.85,7.0,779.00,105.4
2020-07-02,07:10:00,DRY,3.07,20.23,7.0,779.00,124.2
2020-07-02,07:15:00,DRY,3.35,20.40,7.0,779.00,142.0
2020-07-02,07:20:00,DRY,2.47,20.30,7.0,779.00,159.7
2020-07-02,07:25:00,DRY,1.90,20.30,7.0,779.00,178.3
2020-07-02,07:30:00,DRY,2.47,20.30,7.0,779.00,197.1
2020-07-02,07:35:00,DRY,3.25,20.50,7.0,779.00,218.2
2020-07-02,07:40:00,DRY,3.63,20.73,7.0,779.00,239.4
2020-07-02,07:45:00,DRY,2.90,20.75,7.0,779.00,261.1
2020-07-02,07:50:00,DRY,2.60,20.77,7.3,779.00,284.3
2020-07-02,07:55:00,DRY,3.45,20.90,7.5,779.00,307.6
2020-07-02,08:00:00,DRY,3.33,21.07,8.0,779.00,334.2
2020-07-02,08:05:00,DRY,2.45,21.20,8.0,779.00,363.4
2020-07-02,08:10:00,DRY,2.77,21.27,9.0,779.33,311.8
2020-07-02,08:15:00,DRY,2.40,21.25,9.0,779.00,308.7
2020-07-02,08:20:00,DRY,3.27,21.23,9.0,780.00,336.0
2020-07-02,08:25:00,DRY,1.85,21.35,9.0,780.00,439.6
2020-07-02,08:30:00,DRY,2.43,21.53,8.3,780.00,457.9
2020-07-02,08:35:00,DRY,2.35,21.60,8.5,780.00,487.5
2020-07-02,08:40:00,DRY,3.47,21.67,9.0,780.00,365.3
2020-07-02,08:45:00,DRY,2.80,21.65,9.5,780.00,532.4
2020-07-02,08:50:00,DRY,1.10,21.97,9.0,780.00,547.9
2020-07-02,08:55:00,DRY,1.40,22.00,8.5,780.00,574.4
2020-07-02,09:00:00,DRY,1.10,22.03,8.7,780.00,595.4
2020-07-02,09:05:00,DRY,2.35,22.20,8.5,780.00,612.1
2020-07-02,09:10:00,DRY,2.00,22.23,9.0,780.00,628.5
2020-07-02,09:15:00,DRY,3.00,22.15,8.5,780.00,655.8
2020-07-02,09:20:00,DRY,2.63,22.60,9.3,780.00,672.4
2020-07-02,09:25:00,DRY,3.70,22.75,9.0,780.00,698.4
2020-07-02,09:30:00,DRY,2.87,22.53,9.3,780.00,722.1
2020-07-02,09:35:00,DRY,3.90,22.65,9.5,780.00,736.5
2020-07-02,09:40:00,DRY,2.70,22.77,9.3,780.00,751.0
2020-07-02,09:45:00,DRY,3.45,22.80,9.0,780.00,768.7
2020-07-02,09:50:00,DRY,1.87,22.93,9.3,780.00,794.2
2020-07-02,09:55:00,DRY,2.05,22.85,8.5,780.00,811.2
2020-07-02,10:00:00,DRY,2.50,23.33,8.7,780.00,840.3
2020-07-02,10:05:00,DRY,1.60,23.30,8.0,780.00,889.0
2020-07-02,10:10:00,DRY,1.47,23.03,8.0,780.00,372.8
2020-07-02,10:15:00,DRY,1.80,22.55,8.5,780.00,216.8
2020-07-02,10:20:00,DRY,2.33,22.20,8.7,780.00,306.3
2020-07-02,10:25:00,DRY,2.50,22.25,9.5,780.00,744.0
2020-07-02,10:30:00,DRY,1.97,22.70,8.0,780.00,924.4
2020-07-02,10:35:00,DRY,2.05,22.85,9.5,780.00,936.2
2020-07-02,10:40:00,DRY,2.70,23.20,8.7,780.00,954.1
2020-07-02,10:45:00,DRY,0.65,23.65,9.0,780.00,972.0
2020-07-02,10:50:00,DRY,2.43,23.70,7.7,780.00,984.9
2020-07-02,10:55:00,DRY,2.75,23.65,8.5,780.00,991.8
2020-07-02,11:00:00,DRY,3.20,23.50,9.0,780.00,1004.9
2020-07-02,11:05:00,DRY,1.05,23.45,8.5,780.00,1015.0
2020-07-02,11:10:00,DRY,1.50,23.53,8.3,780.00,1026.2
2020-07-02,11:15:00,DRY,1.55,23.90,8.0,780.00,1037.7
2020-07-02,11:20:00,DRY,1.13,23.97,9.0,780.00,1045.4
2020-07-02,11:25:00,DRY,0.80,23.85,8.0,780.00,1063.3
2020-07-02,11:30:00,DRY,1.00,23.87,8.7,780.33,1067.6
2020-07-02,11:35:00,DRY,1.75,23.90,8.5,780.00,1077.2
2020-07-02,11:40:00,DRY,1.20,24.13,9.0,780.00,1087.5
2020-07-02,11:45:00,DRY,2.55,23.80,7.5,780.00,1098.0
2020-07-02,11:50:00,DRY,2.20,23.67,8.7,780.00,1094.2
2020-07-02,11:55:00,DRY,3.75,23.85,9.0,780.00,1103.4
2020-07-02,12:00:00,DRY,2.50,23.67,9.3,780.00,1111.5
2020-07-02,12:05:00,DRY,1.30,24.10,11.0,780.00,1115.6
2020-07-02,12:10:00,DRY,1.80,23.77,9.7,780.00,1122.1
2020-07-02,12:15:00,DRY,2.60,24.25,12.0,780.00,1141.3
2020-07-02,12:20:00,DRY,1.93,24.23,13.7,780.00,1140.3
2020-07-02,12:25:00,DRY,2.35,24.55,13.5,780.00,1134.5
2020-07-02,12:30:00,DRY,2.27,24.83,14.0,780.00,1160.4
2020-07-02,12:35:00,DRY,3.25,24.75,10.5,780.00,1160.8
2020-07-02,12:40:00,DRY,1.90,24.90,10.7,780.00,1152.4
2020-07-02,12:45:00,DRY,1.40,24.50,11.0,780.00,1153.2
2020-07-02,12:50:00,DRY,1.33,24.63,11.3,780.00,1158.2
2020-07-02,12:55:00,DRY,2.35,24.30,12.0,780.00,1160.8
2020-07-02,13:00:00,DRY,1.30,24.63,12.7,780.00,1169.7
2020-07-02,13:05:00,DRY,1.25,24.25,11.5,780.50,1164.6
2020-07-02,13:10:00,DRY,2.40,24.57,13.3,780.00,1162.3
2020-07-02,13:15:00,DRY,2.20,24.05,12.5,780.00,1149.6
2020-07-02,13:20:00,DRY,1.30,24.03,12.7,780.00,1146.4
2020-07-02,13:25:00,DRY,2.70,23.70,12.0,780.00,1151.7
2020-07-02,13:30:00,DRY,2.20,24.00,12.0,780.00,1155.0
2020-07-02,13:35:00,,,,,,
2020-07-02,13:40:00,DRY,1.63,24.03,12.3,780.00,1143.7
2020-07-02,13:45:00,DRY,1.70,24.90,12.5,780.00,1157.1
2020-07-02,13:50:00,DRY,2.87,24.23,12.3,780.00,1141.2
2020-07-02,13:55:00,DRY,2.20,23.85,13.5,780.00,1147.1
2020-07-02,14:00:00,DRY,1.90,24.20,13.3,780.00,1151.4
2020-07-02,14:05:00,DRY,1.10,24.15,13.0,780.00,1152.7
2020-07-02,14:10:00,DRY,1.40,24.33,13.3,780.00,1109.9
2020-07-02,14:15:00,DRY,1.40,25.15,11.5,780.00,1161.5
2020-07-02,14:20:00,DRY,1.77,24.70,12.3,780.00,1142.4
2020-07-02,14:25:00,DRY,2.25,23.65,13.5,780.00,1135.5
2020-07-02,14:30:00,DRY,2.83,23.93,14.3,780.00,1121.2
2020-07-02,14:35:00,DRY,2.05,24.70,14.0,780.00,1101.0
2020-07-02,14:40:00,DRY,2.33,25.40,12.0,780.00,1093.0
2020-07-02,14:45:00,DRY,2.35,24.95,11.5,780.00,1085.8
2020-07-02,14:50:00,DRY,1.87,24.33,11.3,780.00,1094.3
2020-07-02,14:55:00,DRY,1.90,24.65,10.5,780.00,1086.8
2020-07-02,15:00:00,DRY,2.47,24.83,11.3,780.00,1071.9
2020-07-02,15:05:00,DRY,2.30,24.35,12.5,780.00,1055.2
2020-07-02,15:10:00,DRY,2.03,24.17,12.0,780.00,1061.5
2020-07-02,15:15:00,DRY,2.10,23.50,12.0,780.00,1046.2
2020-07-02,15:20:00,DRY,2.60,24.70,12.7,780.00,1026.7
2020-07-02,15:25:00,DRY,2.90,25.05,11.0,780.00,1020.6
2020-07-02,15:30:00,DRY,2.63,24.53,12.3,780.00,1002.3
2020-07-02,15:35:00,DRY,1.65,24.30,12.0,780.00,998.0
2020-07-02,15:40:00,DRY,1.63,24.57,11.7,780.00,983.1
2020-07-02,15:45:00,DRY,2.65,24.40,11.5,780.00,972.2
2020-07-02,15:50:00,DRY,2.67,23.90,12.3,780.00,951.5
2020-07-02,15:55:00,DRY,0.95,24.35,12.0,780.00,932.7
2020-07-02,16:00:00,DRY,2.57,23.73,13.0,780.00,922.0
2020-07-02,16:05:00,DRY,2.10,23.95,12.5,780.00,910.0
2020-07-02,16:10:00,DRY,1.80,23.83,12.3,780.00,885.6
2020-07-02,16:15:00,DRY,1.15,24.20,12.0,780.00,874.6
2020-07-02,16:20:00,DRY,2.27,23.87,11.7,780.00,862.6
2020-07-02,16:25:00,DRY,1.60,23.30,11.5,780.00,846.6
2020-07-02,16:30:00,DRY,1.97,23.87,10.7,780.00,822.1
2020-07-02,16:35:00,DRY,1.50,23.90,10.0,780.00,812.8
2020-07-02,16:40:00,DRY,1.97,23.53,10.3,780.00,799.5
2020-07-02,16:45:00,DRY,2.20,23.90,10.0,780.00,793.2
2020-07-02,16:50:00,DRY,1.17,23.77,10.0,780.00,652.7
2020-07-02,16:55:00,DRY,1.00,23.65,10.0,780.00,585.7
2020-07-02,17:00:00,DRY,0.77,23.20,11.3,780.00,498.5
2020-07-02,17:05:00,DRY,0.85,23.20,11.5,780.00,541.0
2020-07-02,17:10:00,DRY,2.43,23.27,11.7,780.00,612.5
2020-07-02,17:15:00,DRY,1.85,23.40,11.5,780.00,569.0
2020-07-02,17:20:00,DRY,1.27,23.50,10.7,780.00,648.4
2020-07-02,17:25:00,DRY,2.40,23.60,11.5,780.00,457.9
2020-07-02,17:30:00,DRY,1.87,23.60,9.7,780.00,478.4
2020-07-02,17:35:00,DRY,2.00,23.35,9.5,780.00,594.1
2020-07-02,17:40:00,DRY,1.27,24.00,10.7,780.00,599.9
2020-07-02,17:45:00,DRY,1.10,23.90,10.0,780.00,520.4
2020-07-02,17:50:00,DRY,1.00,23.37,10.0,780.00,418.3
2020-07-02,17:55:00,DRY,0.70,23.30,10.0,780.00,472.9
2020-07-02,18:00:00,DRY,1.33,23.00,11.0,780.00,454.9
2020-07-02,18:05:00,DRY,1.40,23.05,11.0,780.00,432.5
2020-07-02,18:10:00,DRY,1.43,23.20,11.7,780.00,411.1
2020-07-02,18:15:00,DRY,1.40,23.30,12.0,780.00,399.4
2020-07-02,18:20:00,DRY,1.43,23.03,12.3,780.00,367.1
2020-07-02,18:25:00,DRY,2.10,22.80,12.0,780.00,335.4
2020-07-02,18:30:00,DRY,1.10,22.63,11.0,780.00,314.7
2020-07-02,18:35:00,DRY,1.20,22.90,11.0,780.00,296.2
2020-07-02,18:40:00,DRY,1.80,22.37,10.3,780.00,275.2
2020-07-02,18:45:00,DRY,1.90,22.45,11.0,780.00,252.7
2020-07-02,18:50:00,DRY,2.10,22.27,11.0,780.00,228.6
2020-07-02,18:55:00,DRY,2.15,22.20,11.0,780.00,204.4
2020-07-02,19:00:00,DRY,1.70,22.23,12.0,780.00,182.3
2020-07-02,19:05:00,DRY,1.45,22.40,12.5,780.00,162.9
2020-07-02,19:10:00,DRY,2.00,22.43,12.7,780.00,130.9
2020-07-02,19:15:00,DRY,1.20,22.35,13.5,780.00,109.4
2020-07-02,19:20:00,DRY,2.10,22.23,14.0,780.00,101.7
2020-07-02,19:25:00,DRY,1.45,22.05,14.0,780.00,91.2
2020-07-02,19:30:00,DRY,1.77,21.97,13.7,780.00,80.6
2020-07-02,19:35:00,DRY,2.25,21.85,14.0,780.00,68.3
2020-07-02,19:40:00,DRY,1.73,21.67,14.0,780.00,57.2
2020-07-02,19:45:00,DRY,1.85,21.55,14.0,780.00,45.4
2020-07-02,19:50:00,DRY,2.33,21.40,14.0,780.00,33.4
2020-07-02,19:55:00,DRY,3.15,21.25,14.0,780.00,23.4
2020-07-02,20:00:00,DRY,2.50,21.10,14.0,780.00,16.6
2020-07-02,20:05:00,DRY,3.40,21.10,13.5,780.00,12.1
2020-07-02,20:10:00,DRY,3.20,21.00,13.0,780.00,7.5
2020-07-02,20:15:00,DRY,2.55,20.85,13.0,780.00,4.8
2020-07-02,20:20:00,DRY,3.40,20.83,12.3,780.33,3.9
2020-07-02,20:25:00,DRY,3.25,20.80,12.0,780.50,1.7
2020-07-02,20:30:00,DRY,3.87,20.73,11.0,780.67,1.8
2020-07-02,20:35:00,DRY,2.50,20.70,11.0,781.00,1.4
2020-07-02,20:40:00,DRY,3.43,20.60,11.0,780.67,1.6
2020-07-02,20:45:00,DRY,3.45,20.65,11.0,781.00,1.1
2020-07-02,20:50:00,DRY,2.90,20.67,11.7,781.00,1.4
2020-07-02,20:55:00,DRY,2.80,20.50,12.0,781.00,0.7
2020-07-02,21:00:00,DRY,2.37,20.50,12.3,781.00,1.5
2020-07-02,21:05:00,DRY,3.15,20.45,12.0,781.00,0.9
2020-07-02,21:10:00,DRY,3.03,20.47,12.0,781.00,1.3
2020-07-02,21:15:00,DRY,2.70,20.45,12.0,781.00,0.6
2020-07-02,21:20:00,DRY,2.60,20.50,12.3,781.00,1.5
2020-07-02,21:25:00,DRY,3.25,20.80,14.0,781.00,1.5
2020-07-02,21:30:00,DRY,2.67,20.57,13.0,781.00,2.2
2020-07-02,21:35:00,DRY,2.25,20.40,12.5,781.00,1.6
2020-07-02,21:40:00,DRY,2.73,20.67,14.0,781.00,2.1
2020-07-02,21:45:00,DRY,2.95,20.90,14.5,781.00,1.6
2020-07-02,21:50:00,DRY,1.93,20.77,15.0,781.00,0.8
2020-07-02,21:55:00,DRY,2.35,20.70,15.0,781.00,1.4
2020-07-02,22:00:00,DRY,2.17,20.53,15.0,781.00,1.7
2020-07-02,22:05:00,DRY,2.00,20.20,15.0,781.00,1.4
2020-07-02,22:10:00,DRY,2.10,20.30,15.3,781.00,1.1
2020-07-02,22:15:00,DRY,1.90,20.40,15.0,781.00,1.8
2020-07-02,22:20:00,DRY,2.37,20.43,15.0,781.00,1.6
2020-07-02,22:25:00,DRY,2.75,20.55,15.0,781.00,1.1
2020-07-02,22:30:00,DRY,2.17,20.60,14.3,781.00,1.3
2020-07-02,22:35:00,DRY,2.00,20.45,14.5,781.00,0.9
2020-07-02,22:40:00,DRY,2.30,20.50,15.0,781.00,1.2
2020-07-02,22:45:00,DRY,1.80,20.55,15.0,781.00,0.2
2020-07-02,22:50:00,DRY,1.73,20.57,14.0,781.33,1.0
2020-07-02,22:55:00,DRY,1.70,20.55,14.0,781.00,0.7
2020-07-02,23:00:00,DRY,2.10,20.57,14.0,781.00,1.4
2020-07-02,23:05:00,DRY,1.65,20.55,14.0,781.00,1.1
2020-07-02,23:10:00,DRY,1.63,20.53,13.7,781.00,1.7
2020-07-02,23:15:00,DRY,2.10,20.50,12.5,781.00,0.8
2020-07-02,23:20:00,DRY,0.90,20.50,12.0,781.00,1.6
2020-07-02,23:25:00,DRY,1.05,20.40,12.0,781.00,1.0
2020-07-02,23:30:00,DRY,1.03,20.30,12.7,781.00,1.2
2020-07-02,23:35:00,DRY,0.50,20.15,12.0,781.00,1.2
2020-07-02,23:40:00,DRY,1.33,20.20,12.0,781.00,0.4
2020-07-02,23:45:00,DRY,1.10,20.40,11.0,781.00,1.1
2020-07-02,23:50:00,DRY,0.67,20.40,11.7,781.00,1.5
2020-07-02,23:55:00,DRY,0.90,20.40,11.5,781.00,2.0
2020-07-03,00:00:00,DRY,1.10,20.33,12.3,781.00,0.9
2020-07-03,00:05:00,DRY,0.70,20.30,12.0,781.00,0.8
2020-07-03,00:10:00,DRY,1.43,20.30,12.0,781.00,1.4
2020-07-03,00:15:00,DRY,1.95,20.40,12.0,781.00,2.1
2020-07-03,00:20:00,DRY,2.33,20.47,12.0,781.00,2.5
2020-07-03,00:25:00,DRY,1.20,20.50,12.0,781.00,0.3
2020-07-03,00:30:00,DRY,1.50,20.57,12.0,781.00,1.7
2020-07-03,00:35:00,DRY,1.30,20.55,12.0,781.00,1.4
2020-07-03,00:40:00,DRY,1.20,20.53,12.0,781.00,0.6
2020-07-03,00:45:00,DRY,1.30,20.50,12.5,781.00,2.0
2020-07-03,00:50:00,DRY,0.97,20.30,12.0,781.00,1.1
2020-07-03,00:55:00,DRY,0.40,20.10,12.0,781.00,1.4
2020-07-03,01:00:00,DRY,1.07,20.07,12.0,781.00,1.2
2020-07-03,01:05:00,DRY,2.05,20.10,11.5,781.00,1.7
2020-07-03,01:10:00,DRY,2.30,20.33,11.0,781.00,0.9
2020-07-03,01:15:00,DRY,2.55,20.30,11.0,781.00,1.4
2020-07-03,01:20:00,DRY,2.03,20.27,11.0,781.00,1.4
2020-07-03,01:25:00,DRY,1.90,20.00,11.0,780.50,0.8
2020-07-03,01:30:00,DRY,2.57,19.73,12.0,780.33,1.0
2020-07-03,01:35:00,DRY,2.15,19.60,12.0,780.00,1.3
2020-07-03,01:40:00,DRY,2.20,19.57,11.3,780.00,0.5
2020-07-03,01:45:00,DRY,2.45,19.65,11.0,780.00,1.2
2020-07-03,01:50:00,DRY,2.10,19.73,11.0,780.00,1.1
2020-07-03,01:55:00,DRY,2.90,19.75,11.0,780.00,1.6
2020-07-03,02:00:00,DRY,2.67,19.73,11.3,780.00,1.6
2020-07-03,02:05:00,DRY,2.35,19.75,11.5,780.00,1.8
2020-07-03,02:10:00,DRY,1.87,19.70,11.3,780.00,1.0
2020-07-03,02:15:00,DRY,2.20,19.70,11.0,780.00,1.6
2020-07-03,02:20:00,DRY,1.47,19.53,11.7,780.00,2.1
2020-07-03,02:25:00,DRY,1.45,19.40,11.5,780.00,1.0
2020-07-03,02:30:00,DRY,1.23,19.33,12.0,780.00,1.2
2020-07-03,02:35:00,DRY,1.95,19.30,11.5,780.00,1.1
2020-07-03,02:40:00,DRY,1.30,19.30,11.0,780.00,0.9
2020-07-03,02:45:00,DRY,1.55,19.30,11.0,780.00,1.2
2020-07-03,02:50:00,DRY,1.57,19.40,11.0,780.00,1.1
2020-07-03,02:55:00,DRY,1.05,19.40,11.0,780.00,0.5
2020-07-03,03:00:00,DRY,1.57,19.50,10.3,780.00,1.6
2020-07-03,03:05:00,DRY,1.30,19.40,11.0,780.00,0.8
2020-07-03,03:10:00,DRY,1.07,19.47,10.7,780.00,0.8
2020-07-03,03:15:00,DRY,1.65,19.50,11.0,780.00,0.8
2020-07-03,03:20:00,DRY,1.17,19.60,11.0,780.00,1.5
2020-07-03,03:25:00,DRY,1.50,19.80,11.0,780.00,1.1
2020-07-03,03:30:00,DRY,1.67,19.70,11.0,780.00,1.2
2020-07-03,03:35:00,DRY,2.10,19.75,11.0,780.00,3.0
2020-07-03,03:40:00,DRY,0.80,19.70,11.0,780.00,1.6
2020-07-03,03:45:00,DRY,1.85,19.70,11.0,780.00,1.1
2020-07-03,03:50:00,DRY,1.87,19.87,11.0,780.00,1.0
2020-07-03,03:55:00,DRY,3.10,19.90,10.0,780.00,1.6
2020-07-03,04:00:00,DRY,2.23,19.90,11.0,780.00,0.8
2020-07-03,04:05:00,DRY,2.05,19.70,11.0,780.00,2.1
2020-07-03,04:10:00,DRY,2.17,19.87,11.0,780.00,1.7
2020-07-03,04:15:00,DRY,1.70,19.65,10.5,780.00,2.0
2020-07-03,04:20:00,DRY,2.17,19.63,9.7,780.00,1.6
2020-07-03,04:25:00,DRY,1.95,19.65,9.0,779.50,2.2
2020-07-03,04:30:00,DRY,2.03,19.60,8.3,779.67,0.4
2020-07-03,04:35:00,DRY,2.00,19.50,9.0,780.00,1.0
2020-07-03,04:40:00,DRY,2.27,19.50,9.7,780.00,1.2
2020-07-03,04:45:00,DRY,2.75,19.45,10.0,780.00,1.1
2020-07-03,04:50:00,DRY,2.23,19.47,10.0,779.67,1.3
2020-07-03,04:55:00,DRY,2.15,19.55,9.5,779.50,0.5
2020-07-03,05:00:00,DRY,2.13,19.70,9.3,780.00,0.8
2020-07-03,05:05:00,DRY,2.15,19.65,10.0,780.00,1.4
2020-07-03,05:10:00,DRY,2.07,19.57,10.0,780.00,0.9
2020-07-03,05:15:00,DRY,1.80,19.60,10.0,780.00,0.8
2020-07-03,05:20:00,DRY,1.90,19.60,10.0,780.00,1.6
2020-07-03,05:25:00,DRY,2.45,19.70,10.0,780.00,1.0
2020-07-03,05:30:00,DRY,2.07,19.80,10.0,780.00,0.8
2020-07-03,05:35:00,DRY,2.15,19.80,10.0,780.00,0.7
2020-07-03,05:40:00,DRY,2.27,19.93,10.0,780.00,0.8
2020-07-03,05:45:00,DRY,2.20,19.90,10.0,780.00,2.1
2020-07-03,05:50:00,DRY,2.03,19.63,11.0,780.00,1.5
2020-07-03,05:55:00,DRY,1.50,19.85,10.0,780.00,0.8
2020-07-03,06:00:00,DRY,2.33,19.90,10.0,780.00,1.9
2020-07-03,06:05:00,DRY,2.75,20.10,10.0,780.00,2.5
2020-07-03,06:10:00,DRY,2.33,20.13,10.0,780.00,3.5
2020-07-03,06:15:00,DRY,2.20,20.10,10.0,780.00,3.7
2020-07-03,06:20:00,DRY,2.40,20.13,10.0,780.00,5.7
2020-07-03,06:25:00,DRY,1.70,19.85,11.0,780.00,10.3
2020-07-03,06:30:00,DRY,1.87,19.80,10.0,780.00,15.4
2020-07-03,06:35:00,DRY,2.40,19.90,10.5,780.00,24.5
2020-07-03,06:40:00,DRY,2.27,20.10,10.7,780.00,40.5
2020-07-03,06:45:00,DRY,2.55,20.15,11.0,780.00,48.0
2020-07-03,06:50:00,DRY,2.13,19.80,11.7,780.00,53.9
2020-07-03,06:55:00,DRY,2.25,19.95,11.5,780.00,65.7
2020-07-03,07:00:00,DRY,2.80,20.07,11.0,780.00,62.2
2020-07-03,07:05:00,DRY,2.45,20.10,11.5,780.00,76.0
2020-07-03,07:10:00,DRY,2.17,19.67,12.3,780.00,101.7
2020-07-03,07:15:00,DRY,2.20,19.95,12.0,780.00,157.2
2020-07-03,07:20:00,DRY,1.63,20.07,12.0,780.00,182.2
2020-07-03,07:25:00,DRY,2.00,20.20,13.0,780.00,200.2
2020-07-03,07:30:00,DRY,2.80,20.30,12.0,780.00,175.4
2020-07-03,07:35:00,DRY,3.10,20.45,12.0,780.00,225.7
2020-07-03,07:40:00,DRY,2.80,20.53,12.0,780.00,173.0
2020-07-03,07:45:00,DRY,2.80,20.55,12.0,780.00,217.9
2020-07-03,07:50:00,DRY,2.77,20.53,12.0,780.00,189.3
2020-07-03,07:55:00,DRY,2.25,20.55,12.0,780.00,258.0
2020-07-03,08:00:00,DRY,2.03,20.67,12.0,780.00,315.0
2020-07-03,08:05:00,DRY,2.05,20.80,12.5,780.00,190.2
2020-07-03,08:10:00,DRY,1.83,20.73,12.7,780.00,341.6
2020-07-03,08:15:00,DRY,1.80,21.00,11.5,780.00,418.5
2020-07-03,08:20:00,DRY,2.47,21.23,11.3,780.00,435.1
2020-07-03,08:25:00,DRY,1.65,21.40,12.5,780.00,456.5
2020-07-03,08:30:00,DRY,2.20,21.57,12.0,780.00,478.7
2020-07-03,08:35:00,DRY,2.00,21.65,12.5,780.00,502.8
2020-07-03,08:40:00,DRY,1.37,21.90,11.3,780.00,522.8
2020-07-03,08:45:00,DRY,1.80,21.90,12.0,780.00,543.2
2020-07-03,08:50:00,DRY,1.57,21.93,10.7,780.00,562.6
2020-07-03,08:55:00,DRY,1.90,22.00,12.0,780.00,581.0
2020-07-03,09:00:00,DRY,1.43,22.17,12.3,780.00,602.5
2020-07-03,09:05:00,DRY,1.90,22.45,11.0,780.00,635.8
2020-07-03,09:10:00,DRY,1.87,22.23,11.0,780.00,646.4
2020-07-03,09:15:00,DRY,2.70,22.45,11.5,780.00,681.4
2020-07-03,09:20:00,DRY,2.07,22.50,11.7,780.00,671.4
2020-07-03,09:25:00,DRY,2.50,22.45,11.5,780.00,693.4
2020-07-03,09:30:00,DRY,1.63,22.67,12.3,780.00,722.6
2020-07-03,09:35:00,DRY,1.65,22.90,11.0,780.00,741.2
2020-07-03,09:40:00,DRY,1.53,23.27,11.7,780.00,763.5
2020-07-03,09:45:00,DRY,2.05,23.20,12.0,780.00,784.7
2020-07-03,09:50:00,DRY,1.80,22.87,11.3,780.00,802.1
2020-07-03,09:55:00,DRY,2.10,22.65,12.0,780.00,816.5
2020-07-03,10:00:00,DRY,1.90,22.97,12.0,780.00,833.4
2020-07-03,10:05:00,DRY,2.70,23.10,12.5,780.00,847.0
2020-07-03,10:10:00,DRY,2.40,22.97,13.0,780.00,867.5
2020-07-03,10:15:00,DRY,2.05,23.10,13.0,780.00,883.9
2020-07-03,10:20:00,DRY,2.07,23.40,13.7,780.00,898.6
2020-07-03,10:25:00,DRY,2.25,23.25,14.0,780.00,913.3
2020-07-03,10:30:00,DRY,2.73,22.60,13.0,780.00,927.7
2020-07-03,10:35:00,DRY,2.95,23.45,14.0,780.00,941.1
2020-07-03,10:40:00,DRY,2.60,23.53,13.0,780.00,957.5
2020-07-03,10:45:00,DRY,2.15,24.05,14.0,780.00,968.2
2020-07-03,10:50:00,DRY,1.80,23.77,11.0,780.00,982.6
2020-07-03,10:55:00,DRY,2.35,23.35,13.0,780.00,997.5
2020-07-03,11:00:00,DRY,2.47,24.07,14.3,780.00,1013.0
2020-07-03,11:05:00,DRY,2.35,23.95,13.5,780.00,1020.3
2020-07-03,11:10:00,DRY,3.83,24.03,13.7,780.00,1031.9
2020-07-03,11:15:00,DRY,3.85,23.70,14.0,780.00,1040.8
2020-07-03,11:20:00,DRY,1.87,23.13,14.0,780.00,1054.1
2020-07-03,11:25:00,DRY,4.15,24.10,15.5,780.00,1064.6
2020-07-03,11:30:00,DRY,3.33,24.53,14.0,780.00,1071.7
2020-07-03,11:35:00,DRY,3.10,24.50,15.5,780.00,1082.4
2020-07-03,11:40:00,DRY,2.23,24.50,15.3,780.00,1093.3
2020-07-03,11:45:00,DRY,3.45,24.55,14.5,780.00,1097.3
2020-07-03,11:50:00,DRY,2.37,24.57,16.0,780.00,1110.6
2020-07-03,11:55:00,DRY,2.75,24.35,16.5,780.00,1125.2
2020-07-03,12:00:00,DRY,2.93,24.90,16.3,780.00,1123.3
2020-07-03,12:05:00,DRY,2.25,24.70,13.0,780.00,1129.3
2020-07-03,12:10:00,DRY,2.53,24.50,15.0,780.00,1134.9
2020-07-03,12:15:00,DRY,2.30,24.15,13.0,781.00,1136.6
2020-07-03,12:20:00,DRY,2.37,24.80,16.0,780.67,1146.0
2020-07-03,12:25:00,DRY,3.20,24.30,14.5,781.00,1144.4
2020-07-03,12:30:00,DRY,2.07,24.53,14.3,781.00,1149.7
2020-07-03,12:35:00,DRY,2.20,24.40,16.0,781.00,1149.2
2020-07-03,12:40:00,DRY,3.13,24.67,16.3,781.00,1157.0
2020-07-03,12:45:00,DRY,1.05,23.75,12.5,781.00,1154.8
2020-07-03,12:50:00,DRY,2.03,24.20,14.7,781.00,1158.1
2020-07-03,12:55:00,DRY,2.45,24.40,14.0,781.00,1159.8
2020-07-03,13:00:00,DRY,2.60,24.90,13.7,781.00,1161.3
2020-07-03,13:05:00,DRY,1.85,24.05,15.0,781.00,1162.2
2020-07-03,13:10:00,DRY,2.03,24.67,15.7,781.00,1164.0
2020-07-03,13:15:00,DRY,1.95,24.75,13.5,781.00,1161.3
2020-07-03,13:20:00,DRY,3.00,24.33,14.3,780.67,1166.0
2020-07-03,13:25:00,DRY,2.40,24.95,14.5,781.00,1164.8
2020-07-03,13:30:00,DRY,1.80,25.10,18.0,781.00,1158.7
2020-07-03,13:35:00,DRY,2.80,24.80,15.0,781.00,1164.9
2020-07-03,13:40:00,DRY,2.57,24.97,15.3,781.00,1159.6
2020-07-03,13:45:00,DRY,1.35,25.30,12.5,781.00,1157.8
2020-07-03,13:50:00,DRY,3.40,25.27,17.0,780.00,1157.6
2020-07-03,13:55:00,DRY,2.00,24.95,16.0,780.50,1153.0
2020-07-03,14:00:00,DRY,2.67,24.70,16.7,780.67,1145.7
2020-07-03,14:05:00,DRY,2.20,24.85,13.0,780.50,1148.4
2020-07-03,14:10:00,DRY,2.40,24.83,14.0,780.00,1138.8
2020-07-03,14:15:00,DRY,3.15,24.85,14.5,780.00,1135.7
2020-07-03,14:20:00,DRY,3.07,24.57,14.3,780.00,1129.1
2020-07-03,14:25:00,DRY,2.75,24.60,12.5,780.00,1129.7
2020-07-03,14:30:00,DRY,2.70,24.37,13.7,780.00,1117.0
2020-07-03,14:35:00,DRY,3.60,24.25,16.5,780.00,1110.4
2020-07-03,14:40:00,DRY,2.70,24.57,13.3,780.00,1102.5
2020-07-03,14:45:00,DRY,2.40,24.65,13.5,780.00,1095.4
2020-07-03,14:50:00,DRY,1.93,24.57,13.3,780.00,1089.2
2020-07-03,14:55:00,DRY,2.00,24.60,13.0,780.00,1075.4
2020-07-03,15:00:00,DRY,3.35,24.80,15.0,780.00,1069.7
2020-07-03,15:05:00,DRY,2.30,24.50,14.0,780.00,1057.2
2020-07-03,15:10:00,DRY,2.43,24.53,16.7,780.00,1045.0
2020-07-03,15:15:00,DRY,2.05,25.20,17.0,780.00,1032.7
2020-07-03,15:20:00,DRY,3.23,24.83,12.3,780.00,1023.4
2020-07-03,15:25:00,DRY,1.65,24.55,13.5,780.00,1008.0
2020-07-03,15:30:00,DRY,2.53,24.77,14.0,780.00,997.6
2020-07-03,15:35:00,DRY,3.10,25.05,15.5,780.00,985.2
2020-07-03,15:40:00,DRY,2.40,24.50,14.0,780.00,973.5
2020-07-03,15:45:00,DRY,3.40,24.85,15.0,780.00,962.8
2020-07-03,15:50:00,DRY,3.57,24.77,14.0,780.00,951.1
2020-07-03,15:55:00,DRY,0.90,24.45,12.5,780.00,932.3
2020-07-03,16:00:00,DRY,3.13,24.20,13.0,780.00,918.4
2020-07-03,16:05:00,DRY,2.05,24.25,12.5,780.00,899.7
2020-07-03,16:10:00,DRY,2.00,24.33,14.3,780.00,888.6
2020-07-03,16:15:00,DRY,1.90,24.50,14.0,780.00,872.9
2020-07-03,16:20:00,DRY,3.47,24.53,13.3,780.00,854.7
2020-07-03,16:25:00,DRY,2.20,24.35,15.0,780.00,838.0
2020-07-03,16:30:00,DRY,2.77,24.43,13.3,780.00,820.4
2020-07-03,16:35:00,DRY,2.15,24.45,12.0,780.00,801.5
2020-07-03,16:40:00,DRY,2.43,23.87,11.3,780.00,782.1
2020-07-03,16:45:00,DRY,1.85,24.35,12.0,780.00,767.9
2020-07-03,16:50:00,DRY,2.47,24.23,13.3,780.00,747.9
2020-07-03,16:55:00,DRY,3.05,24.05,14.5,780.00,732.2
2020-07-03,17:00:00,DRY,2.17,24.67,12.3,780.00,711.4
2020-07-03,17:05:00,DRY,0.95,24.30,11.0,780.00,692.1
2020-07-03,17:10:00,DRY,2.83,24.00,11.0,780.00,671.8
2020-07-03,17:15:00,DRY,2.00,24.00,12.0,780.00,651.1
2020-07-03,17:20:00,DRY,2.67,23.63,12.0,780.00,627.9
2020-07-03,17:25:00,DRY,2.15,23.35,11.0,780.00,608.5
2020-07-03,17:30:00,DRY,2.73,23.47,12.3,780.00,591.0
2020-07-03,17:35:00,DRY,1.70,23.80,12.0,780.00,568.0
2020-07-03,17:40:00,DRY,2.27,23.57,11.3,780.00,546.2
2020-07-03,17:45:00,DRY,3.50,23.25,12.0,780.00,527.1
2020-07-03,17:50:00,DRY,2.57,23.30,12.7,780.00,505.2
2020-07-03,17:55:00,DRY,2.55,23.45,12.0,780.00,485.4
2020-07-03,18:00:00,DRY,2.90,23.37,11.7,780.00,462.4
2020-07-03,18:05:00,DRY,2.35,23.10,11.5,780.00,440.0
2020-07-03,18:10:00,DRY,4.03,23.00,11.3,780.00,418.1
2020-07-03,18:15:00,DRY,2.35,23.05,10.5,780.00,396.1
2020-07-03,18:20:00,DRY,3.67,22.57,11.0,780.00,373.3
2020-07-03,18:25:00,DRY,2.30,22.40,11.0,780.00,351.1
2020-07-03,18:30:00,DRY,2.30,22.60,10.7,780.00,327.7
2020-07-03,18:35:00,DRY,1.95,22.45,11.0,780.00,305.9
2020-07-03,18:40:00,DRY,2.30,22.33,10.7,780.00,284.3
2020-07-03,18:45:00,DRY,2.40,22.35,10.5,780.00,265.2
2020-07-03,18:50:00,DRY,2.63,22.20,9.7,780.00,242.2
2020-07-03,18:55:00,DRY,2.50,21.95,10.0,780.00,221.2
2020-07-03,19:00:00,DRY,1.87,21.90,9.3,780.00,201.7
2020-07-03,19:05:00,DRY,2.45,21.80,10.0,780.00,182.9
2020-07-03,19:10:00,DRY,2.07,21.63,10.0,780.00,161.8
2020-07-03,19:15:00,DRY,2.15,21.60,9.5,780.00,143.6
2020-07-03,19:20:00,DRY,1.60,21.40,9.0,780.00,125.5
2020-07-03,19:25:00,DRY,3.15,21.20,8.5,780.00,107.3
2020-07-03,19:30:00,DRY,1.53,21.03,9.0,780.00,91.1
2020-07-03,19:35:00,DRY,2.55,20.85,8.5,780.00,75.5
2020-07-03,19:40:00,DRY,1.87,20.73,8.3,780.00,60.5
2020-07-03,19:45:00,DRY,1.80,20.55,8.0,780.00,46.7
2020-07-03,19:50:00,DRY,1.50,20.43,7.7,780.33,34.4
2020-07-03,19:55:00,DRY,1.05,20.40,8.0,780.00,25.1
2020-07-03,20:00:00,DRY,2.93,20.30,7.3,780.33,16.5
2020-07-03,20:05:00,DRY,1.50,20.10,7.5,780.00,12.1